Location: Unspecified
(34.1267°N, 0.0000°E)
Time: 12:27:01
(UTC+00:00)

FENGYUN 3E - Visible Passes

Search period start: 04 April 2026 00:00
Search period end: 14 April 2026 00:00
Orbit: 825 x 827 km, 98.8° (Epoch: 29 March)

Date Brightness Start Highest point End Pass type
(mag) Time Alt. Az. Time Alt. Az. Time Alt. Az.
4 Apr ? 18:42:39 10° WSW 18:44:58 13° W 18:47:18 10° WNW visible
6 Apr ? 05:02:47 10° NE 05:07:00 23° E 05:11:11 10° SSE visible
7 Apr ? 04:44:46 10° ENE 04:47:42 15° E 04:50:37 10° SE visible
9 Apr ? 18:47:55 10° WSW 18:49:32 11° W 18:51:10 10° WNW visible
11 Apr ? 05:07:08 10° NE 05:11:33 25° E 05:15:56 10° SSE visible
12 Apr ? 04:48:57 10° NE 04:52:16 16° E 04:55:34 10° SE visible
